Wind_Speed
42 47 46 42 41 40 37 33 33 32 31 31 30 32 32 35 37 38 38 40 39 39 41 39 42 39 42 45 44 45 43 42 44 44 42 35 28 34 34 31 27 31 31
49 49 43 43 44 48 41 38 35 33 35 34 32 33 33 35 35 37 37 39 36 37 36 37 36 35 39 33 36 34 29 37 35 34 32 31 31 34 26 28 28 29 28
46 42 43 43 45 45 45 39 36 32 34 35 33 35 38 36 36 34 30 29 23 22 27 30 31 28 28 29 32 39 37 33 31 30 31 29 28 22 26 28 27 31 31
39 41 43 48 50 50 45 43 38 35 34 35 32 35 33 32 32 30 26 25 22 21 21 20 21 25 27 24 30 29 31 31 28 28 24 26 25 20 23 26 29 31 28
41 44 49 52 54 51 47 38 37 37 34 33 32 32 26 26 28 19 24 20 23 20 20 15 14 21 24 28 25 28 33 30 26 27 25 23 20 18 22 27 29 30 26
48 54 58 58 52 43 36 33 34 36 34 34 26 27 27 25 24 22 20 19 20 17 17 15 10 14 24 29 32 34 33 28 30 31 26 21 19 19 23 25 27 26 27
54 56 53 49 45 39 36 33 33 33 32 30 28 27 29 24 24 24 22 22 22 20 16 12 9 9 22 32 32 31 30 32 27 23 22 17 15 15 18 22 23 23 22
57 52 44 43 44 43 40 41 33 37 33 34 31 31 31 28 25 24 23 20 24 22 17 13 9 10 12 28 29 34 27 33 35 31 27 18 17 19 18 20 23 24 25
48 44 41 39 39 39 41 36 32 26 27 31 33 32 32 32 25 23 25 20 23 22 19 15 11 12 14 17 21 27 33 36 38 34 28 22 20 21 22 23 25 28 28
40 39 39 39 39 35 35 30 28 32 29 31 33 32 33 33 25 24 24 21 24 21 21 19 14 14 16 17 19 22 28 29 26 29 32 27 25 24 23 22 24 26 27
37 35 38 36 32 29 27 30 31 30 30 31 28 25 29 28 25 23 26 27 25 20 23 24 20 15 15 17 16 18 20 21 23 28 24 28 26 24 23 22 23 25 26
35 34 35 31 19 23 26 16 22 24 22 18 16 17 18 19 20 26 25 30 25 23 26 26 25 21 17 16 16 16 19 22 21 24 28 30 33 23 20 21 23 24 25
33 29 25 18 18 13 14 15 20 17 16 13 13 12 11 14 19 24 28 27 28 21 25 32 29 26 22 19 19 18 17 18 21 31 31 30 30 25 22 21 23 24 25
26 26 22 17 17 15 16 11 10 13 13 13 12 14 15 12 11 13 18 22 26 24 27 31 32 29 26 23 21 20 18 20 20 25 26 22 24 27 31 29 30 29 28
25 24 19 14 12 12 13 8 7 8 10 12 12 12 13 11 12 12 11 16 21 26 32 29 31 28 25 22 19 17 19 20 19 21 26 30 30 29 29 26 33 31 38
26 27 21 19 18 13 13 8 8 7 7 8 13 15 14 12 9 8 7 4 11 18 24 24 23 22 21 20 20 22 24 23 22 23 25 28 29 30 30 31 29 32 34
23 15 13 18 12 9 7 8 9 8 8 9 7 10 12 13 11 10 9 9 12 15 18 20 21 21 21 21 22 23 23 23 22 23 26 26 28 29 30 31 34 31 33
12 6 10 12 9 7 9 10 10 10 9 9 10 9 9 9 11 12 13 14 14 15 18 19 20 20 20 21 21 19 20 22 22 24 26 27 27 29 31 34 33 34 34
17 17 12 17 11 13 14 13 13 13 13 10 10 12 13 11 10 10 14 15 16 14 16 17 18 18 19 19 20 20 20 20 22 24 25 24 26 28 30 30 31 32 33
18 17 16 17 20 15 17 17 16 14 14 15 15 14 15 16 14 10 10 12 15 15 17 18 19 19 20 20 20 20 20 20 21 21 22 24 26 27 27 28 30 32 32
20 20 18 18 17 17 19 19 21 22 18 17 18 17 16 17 19 16 15 14 14 15 15 18 21 22 22 22 21 20 20 20 20 20 21 23 24 26 26 25 26 26 29
17 19 20 15 14 16 17 19 20 23 22 18 18 18 18 17 19 22 20 18 17 17 18 19 20 22 22 21 20 20 20 20 20 20 21 23 25 26 28 30 31 30 28
15 16 18 20 22 20 19 20 21 20 19 18 17 18 18 18 20 22 23 23 22 22 22 21 20 20 20 20 20 20 20 20 20 21 22 23 24 24 26 28 28 30 31
16 14 14 16 17 17 17 17 16 16 15 15 15 16 16 17 18 21 24 25 26 26 26 26 24 24 23 23 22 21 21 21 22 22 23 24 24 25 26 27 26 25 25
19 17 15 15 15 16 15 14 14 14 14 14 14 14 15 16 17 19 20 22 24 26 26 26 26 26 25 24 22 22 21 22 22 22 21 21 22 25 27 28 28 27 27
22 20 18 16 15 15 14 13 13 13 13 13 13 13 13 13 13 15 16 16 16 16 17 18 19 20 20 19 18 18 18 18 18 19 19 20 20 19 19 20 21 23 24
Wind_Direction
294 302 305 304 315 312 303 297 299 289 288 286 282 279 276 278 284 289 291 299 289 273 261 260 258 253 251 254 252 251 254 251 251 254 242 229 213 209 210 208 212 221 213
299 301 301 308 314 312 304 296 298 290 286 286 280 280 276 278 284 287 285 295 291 270 261 258 252 250 238 245 243 244 245 250 238 229 220 202 207 206 204 206 209 213 205
295 293 302 309 307 305 303 296 295 288 291 289 281 276 275 278 282 283 284 306 295 286 269 256 246 238 240 241 234 229 246 221 208 204 202 195 198 205 213 208 208 205 202
290 297 303 305 304 302 301 298 291 288 291 288 283 275 275 278 281 278 280 311 300 307 286 270 254 233 220 214 221 226 207 196 191 189 191 199 196 213 209 207 208 205 202
293 299 302 303 300 294 293 291 283 280 285 283 280 279 283 280 280 276 275 292 307 312 308 282 261 233 228 217 210 211 197 196 196 194 197 195 213 214 217 216 203 199 203
298 302 301 299 295 288 284 282 278 280 279 280 280 282 290 288 283 285 277 268 286 303 313 287 268 239 217 198 198 206 217 220 214 203 206 201 206 222 214 201 200 205 206
301 302 300 296 291 284 282 287 272 275 277 281 273 278 280 285 290 275 278 255 262 279 294 297 243 218 205 202 206 215 219 218 212 207 202 192 224 214 200 200 202 208 209
300 299 297 295 291 281 283 279 276 263 270 273 276 271 281 285 286 278 275 268 248 266 271 280 244 216 194 205 209 208 219 224 223 222 203 219 221 209 202 198 206 209 210
299 302 303 296 293 281 276 283 270 263 263 270 276 272 276 277 278 269 270 253 259 250 258 263 251 218 206 197 205 219 230 228 223 212 203 210 214 206 216 212 211 217 210
302 305 301 302 299 293 293 286 257 272 269 272 275 273 273 271 267 258 260 259 255 252 243 247 250 241 220 209 202 203 213 222 226 219 214 213 212 213 223 223 219 217 219
306 305 304 303 297 289 296 273 269 268 271 278 279 276 262 261 261 255 243 248 254 239 234 232 246 249 241 223 218 211 206 207 204 219 227 211 217 224 223 224 222 220 219
309 306 310 306 296 293 273 252 272 270 275 279 281 276 255 257 252 253 247 245 245 238 227 226 238 240 233 226 222 217 212 212 207 201 216 217 220 223 225 217 220 220 217
307 304 306 300 289 285 279 269 281 278 277 281 263 271 255 264 271 256 244 246 238 246 224 220 226 230 235 229 220 217 214 214 215 213 219 215 217 218 216 211 213 216 217
297 294 299 290 278 272 285 277 294 290 274 265 262 266 267 255 264 258 248 240 232 226 220 220 217 219 226 225 221 224 222 221 215 214 209 217 221 220 228 224 214 214 213
292 294 291 253 267 277 282 296 296 297 285 266 266 273 275 263 248 263 261 236 232 223 215 217 214 213 217 216 220 231 235 231 228 222 218 219 222 223 228 229 219 222 224
290 290 253 248 244 255 283 299 292 289 300 297 274 267 273 274 254 255 246 210 210 216 209 207 208 210 211 215 221 228 232 232 229 229 228 223 223 227 228 231 236 230 225
299 295 237 213 225 242 261 286 294 297 292 282 284 281 273 269 254 241 239 215 195 195 197 204 209 210 215 220 228 231 230 230 228 230 233 233 234 235 238 235 226 226 231
267 244 200 202 212 261 281 289 294 291 291 279 273 267 271 271 260 246 231 222 221 213 208 209 211 216 222 226 228 230 232 233 234 237 237 235 235 237 235 232 231 232 230
268 274 260 232 254 260 280 285 276 290 284 282 275 265 259 255 250 244 240 230 221 221 225 225 227 228 229 229 230 231 233 234 232 233 238 241 243 241 240 239 238 235 231
274 262 260 254 251 251 270 282 281 273 280 276 270 271 260 257 250 241 228 227 230 230 229 226 228 230 229 231 234 235 236 237 238 238 239 240 239 238 236 233 234 235 235
276 269 259 253 254 258 265 280 272 284 283 276 270 263 258 255 246 235 230 232 231 230 224 226 225 225 225 229 236 240 242 243 243 243 243 241 240 240 236 227 223 225 231
284 278 264 255 249 253 258 268 278 274 276 273 270 267 259 249 242 238 234 234 236 231 228 224 223 228 233 237 241 246 248 248 248 248 245 243 241 236 232 231 233 234 236
283 282 273 258 254 261 266 268 271 273 270 264 259 257 258 257 248 241 237 234 235 237 237 237 235 236 239 243 247 250 252 253 250 248 246 242 241 239 234 231 231 233 237
285 274 270 265 257 257 261 263 265 265 261 258 257 257 255 254 250 244 238 238 240 241 242 243 240 241 242 245 248 251 252 250 249 248 246 244 242 239 238 237 236 240 244
276 273 266 259 258 259 252 252 257 258 259 260 259 256 254 252 248 245 244 243 242 244 244 245 244 242 242 244 247 249 248 246 245 243 240 241 243 241 241 243 245 248 251
269 266 264 258 250 247 248 248 245 247 250 248 248 248 247 246 245 244 244 243 241 239 237 236 237 238 239 241 242 241 241 241 240 240 239 240 241 242 244 247 248 248 249
Height
3046 3042 3038 3036 3032 3029 3025 3022 3020 3017 3014 3011 3009 3007 3005 3004 3003 2998 2994 2989 2984 2981 2981 2981 2982 2983 2983 2985 2990 2994 2998 3001 3007 3012 3016 3021 3025 3028 3031 3035 3040 3046 3051
3036 3032 3028 3025 3022 3020 3017 3014 3011 3008 3006 3002 3000 2998 2997 2996 2995 2991 2986 2982 2975 2971 2970 2970 2971 2972 2974 2975 2978 2984 2989 2995 3000 3005 3011 3014 3020 3022 3026 3031 3036 3042 3046
3027 3023 3020 3016 3013 3010 3007 3004 3002 3000 2997 2993 2990 2988 2986 2986 2985 2983 2979 2974 2968 2964 2962 2961 2961 2963 2965 2967 2972 2977 2983 2988 2994 3000 3005 3011 3014 3018 3023 3026 3031 3036 3041
3017 3014 3009 3006 3002 2998 2996 2994 2992 2990 2988 2986 2982 2979 2977 2977 2975 2974 2972 2969 2964 2960 2957 2954 2953 2955 2960 2965 2969 2973 2979 2985 2991 2997 3003 3007 3010 3015 3018 3023 3028 3032 3037
3006 3004 2999 2994 2990 2986 2984 2983 2982 2979 2977 2975 2974 2971 2969 2969 2968 2966 2965 2964 2961 2957 2954 2950 2950 2951 2955 2961 2967 2972 2977 2982 2988 2994 2998 3002 3007 3012 3015 3020 3023 3028 3033
2997 2992 2988 2985 2980 2975 2973 2972 2971 2971 2969 2966 2966 2965 2962 2962 2962 2961 2959 2958 2958 2955 2952 2948 2949 2950 2952 2958 2964 2970 2976 2981 2986 2990 2995 3000 3005 3009 3012 3017 3021 3025 3029
2985 2982 2976 2972 2969 2965 2963 2962 2961 2961 2961 2959 2958 2957 2955 2954 2955 2954 2954 2954 2953 2953 2951 2949 2948 2949 2951 2955 2962 2967 2973 2979 2984 2989 2994 2998 3003 3006 3009 3012 3017 3022 3028
2978 2973 2966 2961 2957 2955 2952 2950 2949 2950 2951 2950 2949 2949 2947 2948 2948 2947 2947 2949 2949 2949 2949 2948 2948 2948 2950 2955 2959 2964 2969 2975 2980 2985 2989 2996 3001 3003 3007 3011 3013 3016 3021
2966 2961 2956 2950 2946 2942 2940 2939 2939 2938 2939 2940 2940 2939 2939 2940 2940 2940 2940 2942 2943 2946 2946 2946 2946 2947 2950 2952 2956 2961 2966 2970 2975 2979 2984 2991 2995 2998 3002 3006 3009 3013 3017
2954 2949 2944 2940 2936 2933 2931 2928 2929 2930 2930 2931 2931 2931 2930 2930 2932 2933 2933 2936 2938 2940 2942 2944 2945 2946 2947 2950 2953 2957 2962 2966 2971 2975 2979 2984 2987 2993 2998 3002 3005 3010 3016
2944 2939 2934 2930 2926 2924 2923 2922 2922 2922 2922 2922 2921 2920 2920 2921 2923 2925 2927 2929 2932 2933 2936 2939 2942 2945 2945 2947 2949 2953 2957 2961 2966 2972 2976 2980 2983 2988 2993 2998 3002 3007 3012
2938 2932 2925 2919 2917 2916 2916 2915 2916 2915 2915 2915 2914 2914 2914 2915 2916 2918 2921 2923 2926 2928 2931 2935 2939 2941 2944 2945 2947 2950 2954 2958 2961 2967 2972 2976 2980 2984 2989 2994 2998 3002 3007
2932 2927 2922 2917 2914 2914 2912 2911 2911 2910 2910 2910 2910 2910 2910 2910 2910 2911 2914 2916 2919 2922 2926 2929 2933 2936 2940 2942 2945 2948 2951 2955 2959 2962 2967 2972 2976 2981 2985 2989 2993 2996 3001
2924 2921 2917 2913 2912 2911 2910 2907 2907 2906 2906 2907 2907 2907 2907 2907 2907 2908 2908 2909 2911 2915 2919 2922 2925 2930 2935 2938 2941 2944 2947 2951 2955 2959 2962 2967 2971 2975 2979 2984 2989 2993 2995
2918 2915 2911 2909 2909 2909 2908 2905 2904 2904 2904 2904 2903 2904 2904 2904 2905 2905 2905 2903 2905 2908 2912 2915 2920 2925 2930 2934 2937 2940 2943 2946 2949 2953 2957 2960 2964 2968 2973 2977 2982 2986 2990
2910 2908 2903 2903 2906 2906 2906 2904 2903 2903 2901 2900 2900 2901 2901 2902 2903 2903 2903 2902 2902 2906 2910 2913 2918 2922 2927 2931 2934 2937 2940 2942 2944 2947 2950 2954 2958 2962 2966 2970 2974 2978 2983
2904 2899 2896 2898 2902 2902 2901 2901 2901 2900 2899 2899 2898 2898 2898 2899 2900 2901 2902 2903 2904 2906 2909 2913 2917 2920 2924 2927 2930 2933 2934 2937 2938 2940 2944 2948 2952 2955 2959 2963 2967 2971 2975
2901 2899 2897 2897 2898 2899 2899 2899 2898 2898 2897 2897 2896 2896 2896 2897 2897 2898 2900 2901 2904 2906 2908 2911 2914 2917 2920 2922 2924 2926 2928 2930 2932 2935 2938 2941 2944 2948 2951 2955 2959 2963 2967
2895 2895 2892 2894 2894 2895 2896 2896 2896 2895 2894 2894 2894 2893 2893 2894 2895 2896 2897 2900 2901 2904 2906 2908 2911 2913 2916 2917 2919 2921 2923 2924 2927 2930 2932 2934 2938 2941 2944 2947 2951 2955 2958
2889 2889 2890 2889 2889 2890 2891 2891 2891 2891 2891 2891 2890 2890 2890 2891 2892 2894 2894 2896 2899 2901 2903 2905 2907 2908 2910 2913 2915 2916 2918 2919 2922 2924 2926 2929 2932 2934 2937 2940 2943 2947 2951
2884 2883 2884 2884 2885 2885 2886 2886 2886 2886 2885 2886 2886 2885 2885 2886 2888 2889 2891 2893 2894 2896 2897 2900 2902 2904 2906 2907 2909 2911 2912 2914 2916 2918 2920 2922 2925 2928 2931 2934 2937 2940 2944
2880 2878 2878 2878 2878 2879 2879 2880 2880 2880 2879 2879 2880 2880 2880 2881 2883 2885 2887 2889 2890 2892 2893 2895 2896 2898 2901 2903 2905 2906 2907 2909 2910 2912 2914 2916 2918 2921 2925 2928 2931 2934 2938
2875 2874 2872 2872 2873 2874 2874 2874 2874 2873 2873 2873 2873 2874 2875 2876 2877 2879 2881 2883 2885 2886 2888 2890 2892 2894 2895 2898 2899 2901 2902 2903 2905 2906 2908 2910 2912 2915 2918 2921 2925 2928 2931
2870 2869 2868 2868 2868 2868 2868 2868 2868 2868 2868 2868 2869 2869 2869 2871 2872 2873 2875 2877 2879 2880 2881 2883 2886 2888 2890 2892 2893 2895 2896 2898 2899 2901 2902 2904 2907 2909 2912 2915 2918 2921 2924
2864 2864 2863 2863 2863 2864 2863 2863 2863 2863 2863 2864 2864 2865 2865 2866 2867 2868 2869 2871 2872 2874 2875 2876 2879 2881 2883 2886 2887 2889 2890 2892 2893 2895 2897 2899 2902 2904 2907 2909 2912 2914 2917
2857 2857 2857 2858 2858 2859 2859 2859 2859 2860 2860 2860 2861 2862 2862 2863 2863 2864 2864 2865 2866 2867 2869 2870 2873 2875 2877 2880 2881 2883 2884 2886 2888 2890 2892 2894 2896 2898 2901 2903 2906 2908 2910